�N����,����,�~����,�C��,���x,�C��,����,���ϕ���,�ő�u�ԕ���,�ő厞����,���˗�,�I�_���x,�n�����x,�ő啗���N��,DTYPE
"16/08/06","00:10",0.0,26.0,84.8,1004.5,291.7,0.2,0.9,304.9,0.00,23.3,28.0,"00:09:52",1
"16/08/06","00:20",0.0,26.0,85.2,1004.8,347.4,1.0,1.6,348.4,0.00,23.4,27.8,"00:17:20",1
"16/08/06","00:30",0.0,25.9,85.3,1004.5,328.6,0.6,1.0,328.2,0.00,23.3,27.8,"00:20:08",1
"16/08/06","00:40",0.0,25.7,85.5,1004.3,307.6,0.5,0.8,335.6,0.00,23.1,27.7,"00:31:52",1
"16/08/06","00:50",0.0,25.5,86.0,1004.8,317.0,0.2,0.9,314.7,0.00,23.0,27.7,"00:45:28",1
"16/08/06","01:00",0.0,25.5,86.5,1004.3,304.2,0.2,0.9,348.2,0.00,23.1,27.6,"00:59:52",1
"16/08/06","01:10",0.0,25.4,86.6,1004.5,305.1,0.5,1.4,340.6,0.00,23.0,27.8,"01:01:52",1
"16/08/06","01:20",0.0,25.4,86.9,1004.3,293.7,0.3,0.6,296.9,0.00,23.1,27.6,"01:15:20",1
"16/08/06","01:30",0.0,25.3,86.9,1004.1,307.9,0.3,0.8,1.6,0.00,23.0,27.6,"01:20:08",1
"16/08/06","01:40",0.0,25.4,87.2,1004.1,318.0,0.3,0.9,312.8,0.00,23.2,27.2,"01:35:12",1
"16/08/06","01:50",0.0,25.4,87.1,1003.8,308.6,0.5,1.2,345.5,0.00,23.1,27.3,"01:40:32",1
"16/08/06","02:00",0.0,25.5,86.8,1003.6,285.9,0.3,0.9,247.8,0.00,23.2,27.6,"01:58:08",1
"16/08/06","02:10",0.0,25.6,86.5,1003.8,287.2,0.2,0.6,286.0,0.00,23.2,27.4,"02:05:52",1
"16/08/06","02:20",0.0,25.6,86.4,1003.6,298.6,0.3,0.8,341.8,0.00,23.2,27.3,"02:12:32",1
"16/08/06","02:30",0.0,25.6,86.2,1003.6,321.3,0.5,1.2,355.0,0.00,23.2,27.5,"02:20:02",1
"16/08/06","02:40",0.0,25.7,86.7,1003.6,339.2,0.8,1.6,332.5,0.00,23.4,27.3,"02:38:48",1
"16/08/06","02:50",0.0,25.6,86.8,1003.6,326.4,0.6,1.1,335.5,0.00,23.3,27.5,"02:40:16",1
"16/08/06","03:00",0.0,25.5,86.7,1003.6,295.8,0.3,0.5,310.9,0.00,23.2,27.4,"02:56:48",1
"16/08/06","03:10",0.0,25.5,87.1,1003.6,311.6,0.6,1.7,349.9,0.00,23.2,27.2,"03:08:16",1
"16/08/06","03:20",0.0,25.5,87.5,1003.6,317.2,0.5,0.8,343.2,0.00,23.3,27.3,"03:15:36",1
"16/08/06","03:30",0.0,25.3,87.9,1003.6,303.0,0.3,1.0,349.7,0.00,23.2,27.3,"03:21:20",1
"16/08/06","03:40",0.0,25.2,88.7,1004.1,304.0,0.3,0.6,331.0,0.00,23.2,27.0,"03:30:48",1
"16/08/06","03:50",0.0,25.1,89.2,1003.6,303.2,0.2,0.5,12.0,0.00,23.2,27.0,"03:41:36",1
"16/08/06","04:00",0.0,25.1,89.9,1003.8,346.2,0.7,1.7,358.4,0.00,23.4,27.2,"03:54:32",1
"16/08/06","04:10",0.0,25.0,90.1,1003.8,299.2,0.3,0.6,333.9,0.00,23.3,27.1,"04:09:20",1
"16/08/06","04:20",0.0,24.9,90.4,1003.6,334.4,0.7,1.3,351.6,0.00,23.3,27.1,"04:18:40",1
"16/08/06","04:30",0.0,24.8,90.6,1003.6,327.1,0.5,1.1,1.5,0.00,23.2,27.2,"04:22:08",1
"16/08/06","04:40",0.0,24.7,90.7,1003.8,294.9,0.3,1.0,351.0,0.00,23.1,26.9,"04:35:12",1
"16/08/06","04:50",0.0,24.7,91.1,1004.1,286.6,0.5,1.0,320.8,0.00,23.2,26.8,"04:45:12",1
"16/08/06","05:00",0.0,24.7,91.0,1004.1,297.8,0.6,1.0,333.8,0.00,23.2,27.0,"04:59:36",1
"16/08/06","05:10",0.0,24.6,90.9,1004.1,304.6,0.5,1.0,352.1,0.00,23.1,26.7,"05:00:08",1
"16/08/06","05:20",0.0,24.6,91.2,1004.1,307.9,0.5,0.8,276.0,0.00,23.1,26.8,"05:17:28",1
"16/08/06","05:30",0.0,24.5,91.2,1004.1,316.3,0.6,1.1,328.1,0.00,23.0,26.7,"05:29:28",1
"16/08/06","05:40",0.0,24.6,91.5,1004.3,309.6,0.7,1.1,341.3,0.00,23.2,26.7,"05:30:48",1
"16/08/06","05:50",0.0,24.7,91.8,1004.1,336.2,0.8,1.4,343.6,0.00,23.3,26.9,"05:45:04",1
"16/08/06","06:00",0.0,24.8,91.6,1004.3,289.4,0.5,0.6,323.7,0.00,23.4,26.7,"05:50:24",1
"16/08/06","06:10",0.0,25.0,91.2,1004.3,310.1,0.5,0.6,327.7,0.01,23.5,26.7,"06:08:24",1
"16/08/06","06:20",0.0,25.5,90.6,1004.5,331.0,0.2,0.9,351.6,0.02,23.9,26.7,"06:19:04",1
"16/08/06","06:30",0.0,26.0,89.0,1004.3,348.6,0.7,1.1,337.9,0.03,24.1,26.7,"06:24:08",1
"16/08/06","06:40",0.0,26.7,87.0,1004.3,318.4,0.2,0.6,339.2,0.05,24.4,26.8,"06:30:24",1
"16/08/06","06:50",0.0,27.4,82.7,1004.1,15.6,0.2,0.9,347.7,0.06,24.2,26.8,"06:42:32",1
"16/08/06","07:00",0.0,27.9,82.8,1004.1,12.1,0.6,1.1,354.2,0.08,24.7,26.9,"06:53:28",1
"16/08/06","07:10",0.0,28.2,80.7,1004.1,14.1,0.5,1.0,1.8,0.10,24.6,26.8,"07:02:00",1
"16/08/06","07:20",0.0,28.6,78.0,1003.8,49.6,0.5,1.2,15.4,0.12,24.4,26.9,"07:18:24",1
"16/08/06","07:30",0.0,29.1,75.8,1003.6,67.1,0.2,0.8,98.4,0.14,24.4,27.2,"07:29:52",1
"16/08/06","07:40",0.0,29.4,72.7,1003.6,84.9,0.6,1.6,139.4,0.16,24.0,27.3,"07:31:20",1
"16/08/06","07:50",0.0,29.7,71.9,1004.1,111.8,0.6,1.1,59.2,0.19,24.1,27.5,"07:41:36",1
"16/08/06","08:00",0.0,30.2,72.8,1004.1,53.6,0.7,1.7,3.6,0.21,24.8,27.5,"07:59:20",1
"16/08/06","08:10",0.0,30.6,70.3,1004.3,70.2,0.6,1.6,53.2,0.23,24.6,27.5,"08:06:32",1
"16/08/06","08:20",0.0,30.9,69.1,1004.5,13.7,0.7,1.8,347.4,0.26,24.6,27.7,"08:18:48",1
"16/08/06","08:30",0.0,31.0,67.7,1004.8,36.1,1.0,2.1,8.7,0.28,24.4,27.7,"08:25:28",1
"16/08/06","08:40",0.0,31.4,65.9,1004.5,46.3,0.6,2.0,348.3,0.30,24.3,27.9,"08:30:02",1
"16/08/06","08:50",0.0,31.3,67.1,1004.8,30.6,1.0,2.1,357.3,0.31,24.5,28.1,"08:40:24",1
"16/08/06","09:00",0.0,32.0,66.0,1004.8,64.5,0.6,1.8,6.2,0.34,24.9,28.2,"08:52:08",1
"16/08/06","09:10",0.0,31.8,64.4,1005.0,39.5,1.0,2.0,14.8,0.36,24.3,28.2,"09:00:48",1
"16/08/06","09:20",0.0,32.1,66.4,1005.5,184.2,0.7,2.4,222.7,0.38,25.1,28.8,"09:12:48",1
"16/08/06","09:30",0.0,32.0,62.7,1005.7,194.6,0.8,2.9,207.4,0.40,24.0,28.9,"09:26:24",1
"16/08/06","09:40",0.0,32.8,61.8,1006.0,34.5,0.6,1.9,0.4,0.42,24.5,28.8,"09:37:44",1
"16/08/06","09:50",0.0,32.6,60.9,1005.5,186.2,0.8,1.8,207.9,0.43,24.1,29.0,"09:48:32",1
"16/08/06","10:00",0.0,33.2,61.7,1005.7,160.3,0.8,1.9,203.9,0.45,24.9,29.5,"09:50:56",1
"16/08/06","10:10",0.0,33.4,60.7,1006.0,190.6,1.0,2.8,218.1,0.46,24.8,29.7,"10:03:44",1
"16/08/06","10:20",0.0,33.8,59.6,1006.0,188.3,0.7,2.6,235.2,0.47,24.9,29.9,"10:18:56",1
"16/08/06","10:30",0.0,33.8,58.9,1005.7,187.2,1.2,2.5,230.3,0.48,24.7,29.8,"10:23:44",1
"16/08/06","10:40",0.0,34.3,57.8,1005.7,146.7,1.1,2.7,126.6,0.50,24.8,30.2,"10:31:12",1
"16/08/06","10:50",0.0,34.2,54.9,1005.5,118.2,0.8,1.9,116.2,0.51,23.9,30.4,"10:46:48",1
"16/08/06","11:00",0.0,34.5,57.4,1005.5,196.1,1.1,4.0,224.5,0.52,24.9,30.5,"10:58:08",1
"16/08/06","11:10",0.0,34.7,57.0,1004.8,153.3,1.3,3.7,190.9,0.53,25.0,30.9,"11:02:08",1
"16/08/06","11:20",0.0,35.1,53.0,1005.0,187.2,0.8,2.1,198.3,0.54,24.1,31.2,"11:19:04",1
"16/08/06","11:30",0.0,35.2,55.0,1005.0,205.8,1.6,3.9,219.1,0.56,24.8,31.3,"11:27:36",1
"16/08/06","11:40",0.0,35.4,53.6,1005.0,161.6,1.1,2.4,150.9,0.55,24.6,31.6,"11:37:36",1
"16/08/06","11:50",0.0,35.5,53.3,1004.3,172.8,1.6,3.5,225.1,0.50,24.6,31.7,"11:42:08",1
"16/08/06","12:00",0.0,34.9,53.4,1004.3,195.8,1.1,2.9,214.5,0.33,24.1,31.8,"11:54:48",1
"16/08/06","12:10",0.0,35.3,54.5,1004.5,179.1,1.0,2.4,173.8,0.41,24.8,32.0,"12:07:52",1
"16/08/06","12:20",0.0,35.6,52.2,1004.1,184.6,2.0,4.1,199.2,0.48,24.3,32.2,"12:18:16",1
"16/08/06","12:30",0.0,34.6,53.0,1004.1,183.5,1.7,3.3,196.9,0.24,23.7,32.4,"12:24:40",1
"16/08/06","12:40",0.0,34.5,56.5,1003.8,173.2,1.0,1.8,216.2,0.21,24.6,32.3,"12:33:36",1
"16/08/06","12:50",0.0,35.8,49.3,1003.6,31.4,1.1,3.3,350.5,0.49,23.6,32.3,"12:46:00",1
"16/08/06","13:00",0.0,34.5,52.9,1003.4,88.6,0.6,1.7,351.2,0.13,23.5,32.2,"12:50:40",1
"16/08/06","13:10",0.0,35.1,53.1,1003.1,196.1,0.5,1.3,14.4,0.28,24.2,32.2,"13:09:28",1
"16/08/06","13:20",0.0,36.4,46.6,1003.4,35.5,1.0,2.2,89.8,0.54,23.2,32.3,"13:10:02",1
"16/08/06","13:30",0.0,36.6,46.1,1003.6,126.7,1.0,2.4,66.1,0.54,23.2,32.4,"13:20:08",1
"16/08/06","13:40",0.0,36.7,47.3,1003.8,198.9,1.2,3.7,209.0,0.50,23.7,32.5,"13:36:16",1
"16/08/06","13:50",0.0,35.9,50.1,1003.6,177.2,1.6,4.1,230.7,0.30,23.9,32.3,"13:42:00",1
"16/08/06","14:00",0.0,35.8,48.3,1003.1,42.0,0.6,1.6,160.5,0.30,23.2,32.3,"13:57:12",1
"16/08/06","14:10",0.0,35.7,49.6,1003.1,111.7,0.7,2.1,120.9,0.24,23.6,32.3,"14:01:20",1
"16/08/06","14:20",0.0,36.3,52.4,1002.9,49.2,0.6,1.7,12.3,0.27,25.0,32.3,"14:14:40",1
"16/08/06","14:30",0.0,35.1,54.7,1002.6,90.7,0.8,2.0,28.7,0.19,24.6,32.5,"14:23:44",1
"16/08/06","14:40",0.0,35.1,50.2,1002.2,109.8,0.7,1.8,51.1,0.11,23.2,32.2,"14:35:12",1
"16/08/06","14:50",0.0,35.7,48.6,1002.2,72.6,0.7,2.4,51.2,0.20,23.2,32.5,"14:48:32",1
"16/08/06","15:00",0.0,36.6,47.0,1001.9,90.7,1.1,2.2,135.9,0.33,23.5,32.4,"14:55:04",1
"16/08/06","15:10",0.0,37.0,45.0,1002.2,105.4,1.2,3.1,139.6,0.38,23.1,32.5,"15:01:44",1
"16/08/06","15:20",0.0,36.7,44.0,1002.4,123.0,0.8,2.0,66.7,0.32,22.5,32.5,"15:19:28",1
"16/08/06","15:30",0.0,35.6,46.6,1002.2,122.6,1.0,2.2,74.3,0.17,22.4,32.7,"15:20:56",1
"16/08/06","15:40",0.0,35.2,48.1,1002.2,124.4,1.1,2.2,109.7,0.14,22.6,32.5,"15:34:00",1
"16/08/06","15:50",0.0,34.9,46.9,1001.9,122.0,0.8,1.8,169.1,0.09,21.9,32.2,"15:41:52",1
"16/08/06","16:00",0.0,35.1,45.6,1001.7,99.5,0.8,2.6,133.0,0.08,21.6,32.1,"15:53:28",1
"16/08/06","16:10",0.0,34.9,46.3,1001.2,126.6,0.7,1.7,105.8,0.06,21.7,32.0,"16:07:04",1
"16/08/06","16:20",0.0,34.4,49.6,1001.7,144.1,1.6,8.1,206.3,0.04,22.4,32.0,"16:19:52",1
"16/08/06","16:30",0.0,33.5,52.9,1001.7,211.6,3.0,6.3,226.4,0.03,22.6,31.7,"16:21:20",1
"16/08/06","16:40",0.0,32.9,55.6,1001.0,210.0,2.2,4.2,196.3,0.03,22.9,31.6,"16:30:56",1
"16/08/06","16:50",0.0,32.5,56.7,1001.0,227.5,0.6,2.4,202.0,0.02,22.8,31.5,"16:41:04",1
"16/08/06","17:00",0.0,32.2,59.3,1001.5,339.9,0.3,2.0,4.2,0.02,23.3,31.5,"16:59:12",1
"16/08/06","17:10",0.0,31.7,61.1,1000.8,23.3,0.6,2.1,12.5,0.01,23.3,31.2,"17:00:56",1
"16/08/06","17:20",0.0,31.4,62.8,1000.8,55.4,0.3,1.3,65.7,0.01,23.5,31.1,"17:14:48",1
"16/08/06","17:30",0.0,31.1,63.7,1001.0,20.7,0.5,1.7,12.5,0.01,23.4,30.8,"17:22:00",1
"16/08/06","17:40",0.0,30.7,65.0,1000.8,208.4,0.7,2.4,225.3,0.00,23.4,31.0,"17:36:24",1
"16/08/06","17:50",0.0,30.4,66.2,1000.3,184.1,0.5,2.1,207.8,0.00,23.4,31.0,"17:41:12",1
"16/08/06","18:00",0.0,30.2,67.1,1000.8,54.9,0.2,1.1,4.9,0.00,23.5,30.5,"17:56:16",1
"16/08/06","18:10",0.0,30.0,68.2,1000.8,178.1,0.3,1.2,227.6,0.00,23.5,30.5,"18:08:32",1
"16/08/06","18:20",0.0,29.8,69.2,1001.0,247.6,0.5,1.3,225.7,0.00,23.6,30.5,"18:15:04",1
"16/08/06","18:30",0.0,29.6,70.5,1001.0,352.2,0.2,0.6,11.5,0.00,23.7,30.5,"18:23:28",1
"16/08/06","18:40",0.0,29.3,70.0,1001.0,356.3,0.3,2.1,18.7,0.00,23.3,30.1,"18:38:16",1
"16/08/06","18:50",0.0,29.3,70.5,1000.8,357.1,0.5,1.9,0.4,0.00,23.4,30.4,"18:48:08",1
"16/08/06","19:00",0.0,29.0,71.8,1001.0,289.1,0.2,0.9,223.7,0.00,23.4,30.2,"18:54:16",1
"16/08/06","19:10",0.0,28.8,73.1,1001.2,328.2,0.1,0.5,314.6,0.00,23.5,30.0,"19:09:36",1
"16/08/06","19:20",0.0,28.5,75.2,1001.2,347.6,0.6,1.4,339.5,0.00,23.7,30.0,"19:10:16",1
"16/08/06","19:30",0.0,28.4,76.2,1001.2,350.2,0.3,1.4,351.3,0.00,23.8,29.7,"19:29:44",1
"16/08/06","19:40",0.0,28.1,78.1,1001.5,316.6,0.5,1.2,357.1,0.00,24.0,29.8,"19:30:40",1
"16/08/06","19:50",0.0,27.7,79.6,1001.5,289.2,0.2,0.5,348.6,0.00,23.9,29.4,"19:41:04",1
"16/08/06","20:00",0.0,27.6,80.6,1001.2,315.1,0.5,1.0,329.3,0.00,24.0,29.6,"19:53:36",1
"16/08/06","20:10",0.0,27.5,80.8,1001.7,280.3,0.2,0.5,282.4,0.00,23.9,29.5,"20:09:36",1
"16/08/06","20:20",0.0,27.4,80.5,1001.7,306.4,0.2,0.8,326.7,0.00,23.8,29.4,"20:14:32",1
"16/08/06","20:30",0.0,27.4,80.3,1001.9,162.8,0.1,0.9,308.1,0.00,23.7,29.2,"20:21:04",1
"16/08/06","20:40",0.0,27.4,80.6,1001.9,295.3,0.5,1.1,347.9,0.00,23.8,29.2,"20:31:20",1
"16/08/06","20:50",0.0,27.3,81.1,1001.9,298.6,0.5,1.0,342.0,0.00,23.8,29.0,"20:48:32",1
"16/08/06","21:00",0.0,27.0,82.2,1002.4,295.3,0.5,0.9,331.3,0.00,23.7,29.1,"20:50:48",1
"16/08/06","21:10",0.0,26.9,82.5,1002.4,294.4,0.3,1.1,312.1,0.00,23.7,28.8,"21:08:08",1
"16/08/06","21:20",0.0,27.0,82.8,1002.4,340.5,0.6,1.2,351.2,0.00,23.9,28.7,"21:14:32",1
"16/08/06","21:30",0.0,26.9,82.9,1002.2,298.0,0.6,1.1,323.2,0.00,23.8,28.8,"21:26:48",1
"16/08/06","21:40",0.0,26.6,83.8,1002.6,315.7,0.7,1.0,320.7,0.00,23.7,28.7,"21:33:04",1
"16/08/06","21:50",0.0,26.4,84.7,1002.6,311.0,0.3,0.8,319.7,0.00,23.7,28.7,"21:42:32",1
"16/08/06","22:00",0.0,26.2,84.7,1002.4,311.8,0.6,1.0,338.3,0.00,23.5,28.5,"21:51:28",1
"16/08/06","22:10",0.0,26.2,85.1,1002.4,302.3,0.6,0.8,310.7,0.00,23.5,28.5,"22:03:52",1
"16/08/06","22:20",0.0,26.1,85.4,1002.2,299.3,0.5,0.8,334.1,0.00,23.5,28.6,"22:12:24",1
"16/08/06","22:30",0.0,26.2,85.7,1002.2,329.2,0.6,0.9,342.5,0.00,23.7,28.4,"22:22:08",1
"16/08/06","22:40",0.0,26.0,85.8,1002.4,310.0,0.6,0.9,342.8,0.00,23.5,28.1,"22:30:24",1
"16/08/06","22:50",0.0,25.9,86.0,1002.9,303.1,0.3,0.8,322.5,0.00,23.4,28.2,"22:44:08",1
"16/08/06","23:00",0.0,25.8,86.4,1002.4,302.6,0.5,0.9,327.0,0.00,23.4,28.0,"22:56:16",1
"16/08/06","23:10",0.0,25.7,86.7,1002.6,292.9,0.3,0.6,242.5,0.00,23.4,28.0,"23:06:48",1
"16/08/06","23:20",0.0,25.7,86.7,1002.4,304.0,0.2,0.6,304.4,0.00,23.4,28.1,"23:10:32",1
"16/08/06","23:30",0.0,25.6,86.8,1002.6,314.8,0.3,0.8,341.8,0.00,23.3,28.1,"23:29:04",1
"16/08/06","23:40",0.0,25.5,87.5,1002.6,334.1,0.7,1.3,6.8,0.00,23.3,27.9,"23:34:00",1
"16/08/06","23:50",0.0,25.3,87.7,1002.6,294.1,0.3,0.6,312.5,0.00,23.2,27.8,"23:46:16",1
"16/08/06","24:00",0.0,25.3,88.1,1002.9,282.3,0.3,0.5,261.9,0.00,23.2,27.8,"23:55:12",1
